EW0259 Weather Reports


time (UTC)temp
C
wind
direction
speed
KPH
gust
KPH
rain 1hr
cm
rain 24hr
cm
rain mn
cm
humidity
%
barometer
mb
20260831183221 20 9 4.8 12.9 0.00 0.00 0.00 63 1013.6
20260831182809 20 326 4.8 11.3 0.00 0.00 0.00 63 1013.7
20260831182245 20 324 4.8 12.9 0.00 0.00 0.00 63 1013.9
20260831181726 19 21 6.4 12.9 0.00 0.00 0.00 64 1013.9
20260831181233 20 327 4.8 9.7 0.00 0.00 0.00 63 1013.8
20260831180720 19 298 3.2 14.5 0.00 0.00 0.00 64 1013.8
20260831180307 19 281 6.4 14.5 0.00 0.00 0.00 64 1014.1
20260831175722 19 348 1.6 11.3 0.00 0.00 0.00 66 1014.0
20260831175310 18 305 4.8 14.5 0.00 0.00 0.00 66 1014.1
20260831174724 18 313 4.8 14.5 0.00 0.00 0.00 66 1014.1
20260831174231 18 296 1.6 16.1 0.00 0.00 0.00 68 1013.9
20260831173722 18 322 3.2 16.1 0.00 0.00 0.00 67 1014.0
20260831173229 18 252 1.6 4.8 0.00 0.00 0.00 68 1014.1
20260831172736 18 30 3.2 8.0 0.00 0.00 0.00 69 1014.1
20260831172224 18 288 3.2 8.0 0.00 0.00 0.00 69 1014.1
20260831171730 18 23 1.6 6.4 0.00 0.00 0.00 70 1014.2
20260831171237 18 306 3.2 6.4 0.00 0.00 0.00 68 1014.3
20260831170804 18 68 1.6 4.8 0.00 0.00 0.00 68 1014.4
20260831170732 18 68 1.6 4.8 0.00 0.00 0.00 68 1014.4
20260831170239 18 329 1.6 4.8 0.00 0.00 0.00 67 1014.3
20260831165806 18 113 1.6 4.8 0.00 0.00 0.00 69 1014.4
20260831165735 18 113 1.6 4.8 0.00 0.00 0.00 69 1014.4
20260831165258 17 80 0.0 4.8 0.00 0.00 0.00 69 1014.2
20260831164732 17 112 1.6 6.4 0.00 0.00 0.00 70 1014.3
20260831164239 17 46 3.2 6.4 0.00 0.00 0.00 70 1014.5
20260831163726 17 33 1.6 6.4 0.00 0.00 0.00 71 1014.5
20260831163253 17 111 1.6 4.8 0.00 0.00 0.00 71 1014.5
20260831162732 17 34 3.2 4.8 0.00 0.00 0.00 71 1014.5
20260831162235 16 342 1.6 4.8 0.00 0.00 0.00 72 1014.7
20260831161721 16 42 0.0 4.8 0.00 0.00 0.00 75 1014.7
20260831161228 16 51 0.0 4.8 0.00 0.00 0.00 75 1014.9
20260831160736 16 63 1.6 4.8 0.00 0.00 0.00 76 1014.9
20260831160222 15 80 1.6 4.8 0.00 0.00 0.00 77 1014.9
20260831155729 15 35 1.6 4.8 0.00 0.00 0.00 76 1014.9
20260831155237 15 45 1.6 4.8 0.00 0.00 0.00 77 1014.9
20260831154723 15 81 1.6 6.4 0.00 0.00 0.00 78 1014.8
20260831154311 15 323 1.6 4.8 0.00 0.00 0.00 77 1014.9
20260831153726 15 59 1.6 3.2 0.00 0.00 0.00 78 1014.8
20260831153237 14 74 0.0 4.8 0.00 0.00 0.00 82 1014.9
20260831152724 14 89 1.6 3.2 0.00 0.00 0.00 82 1015.1
20260831152232 13 59 0.0 1.6 0.00 0.00 0.00 84 1015.0
20260831151738 13 34 0.0 0.0 0.00 0.00 0.00 87 1015.0
20260831151225 12 34 0.0 0.0 0.00 0.00 0.00 89 1015.1
20260831150732 12 34 0.0 0.0 0.00 0.00 0.00 91 1015.1
20260831150239 11 34 0.0 0.0 0.00 0.00 0.00 90 1015.1
20260831145726 11 34 0.0 0.0 0.00 0.00 0.00 90 1015.1
20260831145234 11 34 0.0 0.0 0.00 0.00 0.00 91 1015.0
20260831144724 11 34 0.0 0.0 0.00 0.00 0.00 92 1014.9
20260831144231 10 34 0.0 0.0 0.00 0.00 0.00 93 1014.9
20260831143738 10 34 0.0 0.0 0.00 0.00 0.00 93 1014.9
20260831143305 10 34 0.0 0.0 0.00 0.00 0.00 93 1014.9
20260831143233 10 34 0.0 0.0 0.00 0.00 0.00 93 1014.9
20260831142721 10 34 0.0 0.0 0.00 0.00 0.00 93 1015.0
20260831142309 10 34 0.0 0.0 0.00 0.00 0.00 93 1015.0
20260831141722 10 349 0.0 0.0 0.00 0.00 0.00 93 1014.9
20260831141229 10 349 0.0 0.0 0.00 0.00 0.00 93 1015.1
20260831140736 10 349 0.0 0.0 0.00 0.00 0.00 94 1015.1
20260831140223 9 349 0.0 0.0 0.00 0.00 0.00 94 1015.0
20260831135730 9 349 0.0 0.0 0.00 0.00 0.00 93 1015.1
20260831135238 9 349 0.0 0.0 0.00 0.00 0.00 93 1015.0
20260831134728 9 349 0.0 0.0 0.00 0.00 0.00 93 1015.0
20260831134234 9 349 0.0 0.0 0.00 0.00 0.00 93 1015.0
20260831133722 9 349 0.0 0.0 0.00 0.00 0.00 92 1014.9
20260831133228 9 349 0.0 0.0 0.00 0.00 0.00 92 1014.9
20260831132735 9 349 0.0 0.0 0.00 0.00 0.00 92 1014.9
20260831132306 9 349 0.0 0.0 0.00 0.00 0.00 92 1015.0
20260831131738 9 349 0.0 0.0 0.00 0.00 0.00 92 1014.9
20260831131225 9 349 0.0 0.0 0.00 0.00 0.00 92 1015.0
20260831130752 10 349 0.0 0.0 0.00 0.00 0.00 92 1015.0
20260831130307 10 349 0.0 0.0 0.00 0.00 0.00 92 1015.0
20260831130235 10 349 0.0 0.0 0.00 0.00 0.00 92 1015.0
20260831125722 10 349 0.0 0.0 0.00 0.00 0.00 93 1015.0
20260831125230 10 349 0.0 0.0 0.00 0.00 0.00 93 1015.0
20260831124736 10 349 0.0 0.0 0.00 0.00 0.00 93 1015.1
20260831124304 10 350 0.0 0.0 0.00 0.00 0.00 93 1015.0
20260831123800 10 349 0.0 0.0 0.00 0.00 0.00 93 1015.1
20260831123255 10 349 0.0 0.0 0.00 0.00 0.00 92 1015.0
20260831123223 10 349 0.0 0.0 0.00 0.00 0.00 92 1015.0
20260831122730 10 349 0.0 0.0 0.00 0.00 0.00 92 1015.1
20260831122222 10 349 0.0 0.0 0.00 0.00 0.00 92 1015.2
20260831121728 10 349 0.0 0.0 0.00 0.00 0.00 92 1015.1
20260831121235 10 349 0.0 0.0 0.00 0.00 0.00 92 1015.2
20260831120722 10 349 0.0 0.0 0.00 0.00 0.00 92 1015.3
20260831120309 10 349 0.0 0.0 0.00 0.00 0.00 92 1015.4
20260831120237 10 349 0.0 0.0 0.00 0.00 0.00 92 1015.4
20260831115725 10 349 0.0 0.0 0.00 0.00 0.00 92 1015.4
20260831115232 10 349 0.0 0.0 0.00 0.00 0.00 91 1015.5
20260831114738 10 349 0.0 0.0 0.00 0.00 0.00 92 1015.5
20260831114225 10 349 0.0 0.0 0.00 0.00 0.00 92 1015.5
20260831113732 10 349 0.0 0.0 0.00 0.00 0.00 92 1015.6
20260831113259 10 349 0.0 0.0 0.00 0.00 0.00 92 1015.6
20260831112735 10 349 0.0 0.0 0.00 0.00 0.00 91 1015.5
20260831112226 10 349 0.0 0.0 0.00 0.00 0.00 91 1015.8
20260831111752 10 349 0.0 0.0 0.00 0.00 0.00 92 1015.7
20260831111720 10 349 0.0 0.0 0.00 0.00 0.00 92 1015.7
20260831111227 10 349 0.0 0.0 0.00 0.00 0.00 92 1015.9
20260831110734 10 349 0.0 0.0 0.00 0.00 0.00 92 1015.8
20260831110221 10 349 0.0 0.0 0.00 0.00 0.00 92 1015.9
20260831105729 10 349 0.0 0.0 0.00 0.00 0.00 91 1015.9
20260831105231 10 349 0.0 0.0 0.00 0.00 0.00 91 1016.0
20260831104737 10 349 0.0 0.0 0.00 0.00 0.00 91 1015.9
20260831104224 10 349 0.0 0.0 0.00 0.00 0.00 91 1016.0
20260831103731 10 349 0.0 0.0 0.00 0.00 0.00 91 1016.1
20260831103222 10 349 0.0 0.0 0.00 0.00 0.00 91 1016.1
20260831102806 10 349 0.0 0.0 0.00 0.00 0.00 91 1016.2
20260831102227 10 349 0.0 0.0 0.00 0.00 0.00 92 1016.2
20260831101733 10 350 0.0 0.0 0.00 0.00 0.00 91 1016.1
20260831101220 10 349 0.0 0.0 0.00 0.00 0.00 91 1016.1
20260831100727 10 349 0.0 0.0 0.00 0.00 0.00 91 1016.1
20260831100234 10 349 0.0 0.0 0.00 0.00 0.00 91 1016.3
20260831095801 10 349 0.0 0.0 0.00 0.00 0.00 90 1016.2
20260831095729 10 349 0.0 0.0 0.00 0.00 0.00 90 1016.2
20260831095237 10 349 0.0 0.0 0.00 0.00 0.00 90 1016.2
20260831094803 10 349 0.0 0.0 0.00 0.00 0.00 90 1016.3
20260831094731 10 349 0.0 0.0 0.00 0.00 0.00 90 1016.3
20260831094238 10 349 0.0 0.0 0.00 0.00 0.00 90 1016.4
20260831093725 11 349 0.0 0.0 0.00 0.00 0.00 89 1016.4
20260831093253 11 349 0.0 0.0 0.00 0.00 0.00 89 1016.4
20260831092728 11 349 0.0 0.0 0.00 0.00 0.00 89 1016.5
20260831092256 11 349 0.0 0.0 0.00 0.00 0.00 89 1016.6
20260831092224 11 349 0.0 0.0 0.00 0.00 0.00 89 1016.6
20260831091730 11 349 0.0 0.0 0.00 0.00 0.00 89 1016.8
20260831091235 11 349 0.0 0.0 0.00 0.00 0.00 88 1016.6
20260831090722 11 349 0.0 0.0 0.00 0.00 0.00 88 1016.7
20260831090229 11 349 0.0 0.0 0.00 0.00 0.00 88 1016.7
20260831085736 11 349 0.0 0.0 0.00 0.00 0.00 88 1016.8
20260831085224 11 350 0.0 0.0 0.00 0.00 0.00 89 1016.7
20260831084730 11 349 0.0 0.0 0.00 0.00 0.00 88 1016.8
20260831084252 11 349 0.0 0.0 0.00 0.00 0.00 88 1016.8
20260831084220 11 349 0.0 0.0 0.00 0.00 0.00 88 1016.8
20260831083728 11 349 0.0 0.0 0.00 0.00 0.00 89 1016.9
20260831083255 11 349 0.0 0.0 0.00 0.00 0.00 88 1016.8
20260831082730 11 349 0.0 0.0 0.00 0.00 0.00 88 1017.0
20260831082257 11 349 0.0 0.0 0.00 0.00 0.00 87 1016.9
20260831082225 11 349 0.0 0.0 0.00 0.00 0.00 87 1016.9
20260831081731 11 349 0.0 0.0 0.00 0.00 0.00 87 1017.0
20260831081258 11 349 0.0 0.0 0.00 0.00 0.00 87 1017.0
20260831080733 11 349 0.0 0.0 0.00 0.00 0.00 87 1017.1
20260831080240 12 349 0.0 0.0 0.00 0.00 0.00 86 1017.1
20260831075725 12 349 0.0 0.0 0.00 0.00 0.00 86 1017.3
20260831075233 12 349 0.0 0.0 0.00 0.00 0.00 86 1017.2
20260831074739 12 349 0.0 0.0 0.00 0.00 0.00 86 1017.3
20260831074226 12 349 0.0 0.0 0.00 0.00 0.00 86 1017.4
20260831073753 12 349 0.0 0.0 0.00 0.00 0.00 85 1017.4
20260831073721 12 349 0.0 0.0 0.00 0.00 0.00 85 1017.4
20260831073228 12 349 0.0 0.0 0.00 0.00 0.00 85 1017.4
20260831072735 12 349 0.0 0.0 0.00 0.00 0.00 85 1017.3
20260831072306 12 326 0.0 0.0 0.00 0.00 0.00 85 1017.4
20260831071758 12 326 0.0 0.0 0.00 0.00 0.00 84 1017.5
20260831071726 12 326 0.0 0.0 0.00 0.00 0.00 84 1017.5
20260831071233 12 326 0.0 0.0 0.00 0.00 0.00 84 1017.5
20260831070800 12 326 0.0 0.0 0.00 0.00 0.00 82 1017.6
20260831070729 12 326 0.0 0.0 0.00 0.00 0.00 82 1017.6
20260831070235 13 326 0.0 0.0 0.00 0.00 0.00 82 1017.7
20260831065722 13 326 0.0 0.0 0.00 0.00 0.00 82 1017.7
20260831065310 13 326 0.0 0.0 0.00 0.00 0.00 82 1017.7
20260831065238 13 326 0.0 0.0 0.00 0.00 0.00 82 1017.7
20260831064724 13 309 0.0 0.0 0.00 0.00 0.00 81 1017.9
20260831064235 13 309 0.0 0.0 0.00 0.00 0.00 81 1018.0
20260831063802 13 309 0.0 0.0 0.00 0.00 0.00 81 1018.0
20260831063238 13 309 0.0 0.0 0.00 0.00 0.00 80 1018.0
20260831062805 13 309 0.0 0.0 0.00 0.00 0.00 80 1018.0
20260831062221 13 309 0.0 0.0 0.00 0.00 0.00 80 1018.1
20260831061727 13 309 0.0 0.0 0.00 0.00 0.00 79 1018.1
20260831061234 14 309 0.0 0.0 0.00 0.00 0.00 79 1018.1
20260831060801 14 309 0.0 0.0 0.00 0.00 0.00 79 1018.1
20260831060730 14 309 0.0 0.0 0.00 0.00 0.00 79 1018.1
20260831060236 14 309 0.0 0.0 0.00 0.00 0.00 78 1018.2
20260831055803 14 309 0.0 0.0 0.00 0.00 0.00 78 1018.3
20260831055731 14 309 0.0 0.0 0.00 0.00 0.00 78 1018.3
20260831055239 14 309 0.0 0.0 0.00 0.00 0.00 79 1018.3
20260831054725 15 309 0.0 0.0 0.00 0.00 0.00 78 1018.4
20260831054232 15 309 0.0 0.0 0.00 0.00 0.00 78 1018.4
20260831053739 15 309 0.0 0.0 0.00 0.00 0.00 75 1018.4
20260831053230 15 309 0.0 0.0 0.00 0.00 0.00 75 1018.5
20260831052737 15 309 0.0 0.0 0.00 0.00 0.00 75 1018.6
20260831052307 15 309 0.0 0.0 0.00 0.00 0.00 75 1018.6
20260831051739 15 309 0.0 0.0 0.00 0.00 0.00 75 1018.6
20260831051306 15 309 0.0 0.0 0.00 0.00 0.00 75 1018.6
20260831050721 15 309 0.0 0.0 0.00 0.00 0.00 75 1018.6
20260831050228 15 309 0.0 0.0 0.00 0.00 0.00 75 1018.8
20260831045735 15 309 0.0 0.0 0.00 0.00 0.00 74 1018.7
20260831045306 15 309 0.0 0.0 0.00 0.00 0.00 73 1018.7
20260831044737 16 309 0.0 0.0 0.00 0.00 0.00 72 1018.8
20260831044225 16 309 0.0 0.0 0.00 0.00 0.00 72 1018.7
20260831043731 16 309 0.0 0.0 0.00 0.00 0.00 71 1018.8
20260831043238 16 309 0.0 0.0 0.00 0.00 0.00 71 1018.7
20260831042729 16 309 0.0 0.0 0.00 0.00 0.00 71 1018.7
20260831042236 16 309 0.0 0.0 0.00 0.00 0.00 71 1018.8
20260831041722 16 309 0.0 0.0 0.00 0.00 0.00 69 1018.6
20260831041310 16 309 0.0 0.0 0.00 0.00 0.00 68 1018.8
20260831040725 17 309 0.0 0.0 0.00 0.00 0.00 68 1018.8
20260831040232 17 309 0.0 0.0 0.00 0.00 0.00 67 1018.8
20260831035739 17 309 0.0 0.0 0.00 0.00 0.00 66 1018.8
20260831035227 17 304 0.0 0.0 0.00 0.00 0.00 65 1018.9
20260831034753 17 304 0.0 0.0 0.00 0.00 0.00 64 1018.9
20260831034721 17 304 0.0 0.0 0.00 0.00 0.00 64 1018.9
20260831034230 17 304 0.0 3.2 0.00 0.00 0.00 63 1018.8
20260831033756 17 302 0.0 3.2 0.00 0.00 0.00 63 1018.8
20260831033231 17 302 0.0 3.2 0.00 0.00 0.00 63 1018.8
20260831032737 17 292 0.0 3.2 0.00 0.00 0.00 62 1018.6
20260831032300 17 292 0.0 3.2 0.00 0.00 0.00 62 1018.6
20260831031754 18 311 0.0 0.0 0.00 0.00 0.00 62 1018.6
20260831031722 18 311 0.0 0.0 0.00 0.00 0.00 62 1018.6
20260831031309 18 311 0.0 1.6 0.00 0.00 0.00 62 1018.6
20260831030724 18 311 0.0 3.2 0.00 0.00 0.00 60 1018.6
20260831030235 18 304 1.6 3.2 0.00 0.00 0.00 60 1018.7
20260831025722 18 293 0.0 3.2 0.00 0.00 0.00 60 1018.6
20260831025230 18 292 1.6 3.2 0.00 0.00 0.00 59 1018.7
20260831024736 18 323 0.0 4.8 0.00 0.00 0.00 59 1018.7
20260831024223 19 333 0.0 8.0 0.00 0.00 0.00 59 1018.8
20260831023730 19 316 3.2 8.0 0.00 0.00 0.00 58 1018.9
20260831023257 19 317 1.6 6.4 0.00 0.00 0.00 58 1018.8
20260831022753 19 292 3.2 6.4 0.00 0.00 0.00 57 1018.8
20260831022309 20 313 1.6 4.8 0.00 0.00 0.00 57 1018.9
20260831022238 20 313 1.6 4.8 0.00 0.00 0.00 57 1018.9
20260831021723 20 349 1.6 6.4 0.00 0.00 0.00 56 1018.9
20260831021230 20 288 3.2 6.4 0.00 0.00 0.00 54 1018.8
20260831020737 20 294 3.2 6.4 0.00 0.00 0.00 53 1019.1
20260831020305 21 305 0.0 3.2 0.00 0.00 0.00 53 1019.0
20260831015720 21 324 0.0 6.4 0.00 0.00 0.00 52 1019.1
20260831015232 21 336 1.6 6.4 0.00 0.00 0.00 51 1019.0
20260831014738 21 304 0.0 3.2 0.00 0.00 0.00 51 1019.1
20260831014225 21 327 0.0 3.2 0.00 0.00 0.00 51 1019.2
20260831013732 21 264 1.6 3.2 0.00 0.00 0.00 50 1019.2
20260831013239 21 320 0.0 4.8 0.00 0.00 0.00 50 1019.3
20260831012806 21 265 3.2 4.8 0.00 0.00 0.00 49 1019.4
20260831012734 21 265 3.2 4.8 0.00 0.00 0.00 49 1019.4
20260831012222 21 316 0.0 3.2 0.00 0.00 0.00 50 1019.4
20260831011728 21 318 1.6 8.0 0.00 0.00 0.00 49 1019.3
20260831011235 21 306 3.2 8.0 0.00 0.00 0.00 49 1019.3
20260831010722 22 266 1.6 4.8 0.00 0.00 0.00 49 1019.4
20260831010310 22 334 1.6 4.8 0.00 0.00 0.00 49 1019.5
20260831005725 22 332 1.6 6.4 0.00 0.00 0.00 50 1019.5
20260831005254 21 276 3.2 6.4 0.00 0.00 0.00 50 1019.5
20260831004732 21 296 1.6 9.7 0.00 0.00 0.00 50 1019.5
20260831004239 21 339 4.8 9.7 0.00 0.00 0.00 51 1019.6
20260831003721 22 252 3.2 6.4 0.00 0.00 0.00 50 1019.7
20260831003228 22 340 1.6 3.2 0.00 0.00 0.00 50 1019.7
20260831002735 21 50 0.0 4.8 0.00 0.00 0.00 51 1019.7
20260831002223 21 93 0.0 6.4 0.00 0.00 0.00 51 1019.8
20260831001729 21 252 4.8 6.4 0.00 0.00 0.00 51 1019.7
20260831001236 22 37 1.6 6.4 0.00 0.00 0.00 51 1019.8
20260831000738 21 355 1.6 6.4 0.00 0.00 0.00 51 1019.7
20260831000226 21 271 1.6 4.8 0.00 0.00 0.00 51 1019.9
20260830235735 21 302 1.6 6.4 0.00 0.00 0.00 53 1020.0
20260830235305 21 304 3.2 6.4 0.00 0.00 0.00 53 1019.9
20260830234738 21 277 1.6 3.2 0.00 0.00 0.00 54 1019.9
20260830234226 20 144 1.6 3.2 0.00 0.00 0.00 55 1020.0
20260830233732 20 191 0.0 3.2 0.00 0.00 0.00 56 1020.2
20260830233220 20 153 0.0 3.2 0.00 0.00 0.00 58 1020.2
20260830232727 20 121 1.6 3.2 0.00 0.00 0.00 54 1020.2
20260830232255 20 167 0.0 1.6 0.00 0.00 0.00 55 1020.1
20260830232223 20 167 0.0 1.6 0.00 0.00 0.00 55 1020.1
20260830231729 20 186 0.0 3.2 0.00 0.00 0.00 56 1020.1
20260830231236 21 273 1.6 3.2 0.00 0.00 0.00 55 1020.1
20260830230804 21 115 1.6 6.4 0.00 0.00 0.00 54 1020.2
20260830230239 21 136 3.2 6.4 0.00 0.00 0.00 53 1020.2
20260830225806 21 40 1.6 4.8 0.00 0.00 0.00 55 1020.1
20260830225734 21 40 1.6 4.8 0.00 0.00 0.00 55 1020.1
20260830225222 21 306 1.6 4.8 0.00 0.00 0.00 56 1020.2
20260830224732 21 38 1.6 8.0 0.00 0.00 0.00 56 1020.3
20260830224239 20 346 4.8 8.0 0.00 0.00 0.00 56 1020.4
20260830223806 20 52 1.6 9.7 0.00 0.00 0.00 56 1020.4
20260830223302 20 69 1.6 9.7 0.00 0.00 0.00 57 1020.5
20260830223230 20 69 1.6 9.7 0.00 0.00 0.00 57 1020.5
20260830222737 20 350 4.8 11.3 0.00 0.00 0.00 57 1020.6
20260830222306 20 251 3.2 9.7 0.00 0.00 0.00 56 1020.6
20260830222233 20 251 3.2 9.7 0.00 0.00 0.00 56 1020.6
20260830221759 20 251 1.6 3.2 0.00 0.00 0.00 55 1020.6
20260830221727 20 251 1.6 3.2 0.00 0.00 0.00 55 1020.6
20260830221234 20 217 0.0 3.2 0.00 0.00 0.00 55 1020.7
20260830220801 21 288 1.6 3.2 0.00 0.00 0.00 54 1020.6
20260830220236 21 292 1.6 6.4 0.00 0.00 0.00 54 1021.0
20260830215803 21 130 3.2 8.0 0.00 0.00 0.00 53 1020.7
20260830215731 21 130 3.2 8.0 0.00 0.00 0.00 53 1020.7
20260830215239 21 88 1.6 9.7 0.00 0.00 0.00 52 1020.9
20260830214725 21 143 3.2 12.9 0.00 0.00 0.00 51 1020.9
20260830214232 22 336 3.2 12.9 0.00 0.00 0.00 50 1020.9
20260830213739 22 136 1.6 6.4 0.00 0.00 0.00 54 1020.9
20260830213306 21 9 3.2 8.0 0.00 0.00 0.00 54 1021.0
20260830212721 21 276 3.2 8.0 0.00 0.00 0.00 54 1021.0
20260830212229 21 313 3.2 9.7 0.00 0.00 0.00 53 1020.9
20260830211739 20 263 4.8 9.7 0.00 0.00 0.00 53 1021.0
20260830211226 20 169 3.2 6.4 0.00 0.00 0.00 53 1021.2
20260830210733 21 265 1.6 6.4 0.00 0.00 0.00 55 1021.2
20260830210220 20 177 3.2 6.4 0.00 0.00 0.00 55 1021.5
20260830205727 20 351 1.6 6.4 0.00 0.00 0.00 57 1021.5
20260830205235 20 137 3.2 6.4 0.00 0.00 0.00 55 1021.5
20260830204721 20 121 1.6 6.4 0.00 0.00 0.00 57 1021.3
20260830204309 20 279 3.2 6.4 0.00 0.00 0.00 59 1021.4
20260830203805 19 88 3.2 9.7 0.00 0.00 0.00 59 1021.4
20260830203301 20 132 6.4 9.7 0.00 0.00 0.00 58 1021.4
20260830202736 19 313 3.2 12.9 0.00 0.00 0.00 59 1021.5
20260830202224 19 109 4.8 12.9 0.00 0.00 0.00 59 1021.6
20260830201730 20 274 6.4 11.3 0.00 0.00 0.00 58 1021.5
20260830201221 20 194 1.6 6.4 0.00 0.00 0.00 60 1021.5
20260830200728 19 17 3.2 12.9 0.00 0.00 0.00 61 1021.5
20260830200235 19 298 3.2 12.9 0.00 0.00 0.00 61 1021.5
20260830195722 19 49 3.2 9.7 0.00 0.00 0.00 62 1021.6
20260830195311 18 300 4.8 11.3 0.00 0.00 0.00 61 1021.6
20260830194725 18 236 4.8 11.3 0.00 0.00 0.00 62 1021.5
20260830194232 18 251 3.2 9.7 0.00 0.00 0.00 63 1021.7
20260830193739 18 261 4.8 11.3 0.00 0.00 0.00 63 1021.7
20260830193226 18 279 3.2 6.4 0.00 0.00 0.00 61 1021.7
20260830192733 18 234 1.6 4.8 0.00 0.00 0.00 61 1021.6
20260830192225 18 360 1.6 4.8 0.00 0.00 0.00 62 1021.6
20260830191731 18 105 0.0 6.4 0.00 0.00 0.00 62 1021.6
20260830191238 18 303 1.6 6.4 0.00 0.00 0.00 64 1021.6
20260830190725 18 327 1.6 6.4 0.00 0.00 0.00 63 1021.6
20260830190232 18 350 3.2 6.4 0.00 0.00 0.00 64 1021.4
20260830185739 17 107 1.6 4.8 0.00 0.00 0.00 66 1021.6
20260830185227 17 92 3.2 4.8 0.00 0.00 0.00 65 1021.7
20260830184733 17 108 1.6 9.7 0.00 0.00 0.00 66 1021.8
20260830184220 17 101 4.8 9.7 0.00 0.00 0.00 65 1021.7
20260830183807 17 169 1.6 9.7 0.00 0.00 0.00 64 1021.7